Time,TemperatureF,DewpointF,PressureIn,WindDirection,WindDirectionDegrees,WindSpeedMPH,WindSpeedGustMPH,Humidity,HourlyPrecipIn,Conditions,Clouds,dailyrainin,SolarRadiationWatts/m^2,SoftwareType,DateUTC
2013-04-24 00:02:00,51.3,49.1,30.15,South,191,2.0,2.0,92,0.00,,,0.00,0,Wunderground v.1.15,2013-04-24 04:02:00,
2013-04-24 00:04:00,51.3,49.1,30.15,South,191,2.0,2.0,92,0.00,,,0.00,0,Wunderground v.1.15,2013-04-24 04:04:00,
2013-04-24 00:06:00,51.4,49.4,30.15,South,191,2.0,3.0,93,0.00,,,0.00,0,Wunderground v.1.15,2013-04-24 04:06:00,
2013-04-24 00:12:00,51.6,49.6,30.15,South,191,1.0,2.0,93,0.00,,,0.00,0,Wunderground v.1.15,2013-04-24 04:12:00,
2013-04-24 00:16:00,51.6,49.4,30.15,South,191,1.0,2.0,92,0.00,,,0.00,0,Wunderground v.1.15,2013-04-24 04:16:00,
2013-04-24 00:22:00,51.4,49.2,30.15,South,191,1.0,2.0,92,0.00,,,0.00,0,Wunderground v.1.15,2013-04-24 04:22:00,
2013-04-24 00:28:00,51.4,49.2,30.15,South,191,2.0,2.0,92,0.00,,,0.00,0,Wunderground v.1.15,2013-04-24 04:28:00,
2013-04-24 00:34:00,51.4,49.2,30.15,South,191,2.0,2.0,92,0.00,,,0.00,0,Wunderground v.1.15,2013-04-24 04:34:00,
2013-04-24 00:40:00,51.3,49.1,30.15,South,191,1.0,1.0,92,0.00,,,0.00,0,Wunderground v.1.15,2013-04-24 04:40:00,
2013-04-24 00:46:00,51.0,48.8,30.15,South,191,0.0,1.0,92,0.00,,,0.00,0,Wunderground v.1.15,2013-04-24 04:46:00,
2013-04-24 00:52:00,50.8,48.6,30.15,South,191,0.0,0.0,92,0.00,,,0.00,0,Wunderground v.1.15,2013-04-24 04:52:00,
2013-04-24 00:58:00,50.5,48.3,30.15,South,191,0.0,0.0,92,0.00,,,0.00,0,Wunderground v.1.15,2013-04-24 04:58:00,
2013-04-24 01:04:00,50.4,48.2,30.15,South,191,0.0,3.0,92,0.00,,,0.00,0,Wunderground v.1.15,2013-04-24 05:04:00,
2013-04-24 01:10:00,50.2,48.0,30.15,South,191,0.0,3.0,92,0.00,,,0.00,0,Wunderground v.1.15,2013-04-24 05:10:00,
2013-04-24 01:16:00,50.1,47.9,30.16,South,191,0.0,0.0,92,0.00,,,0.00,0,Wunderground v.1.15,2013-04-24 05:16:00,
2013-04-24 01:22:00,49.9,48.0,30.16,South,191,0.0,0.0,93,0.00,,,0.00,0,Wunderground v.1.15,2013-04-24 05:22:00,
2013-04-24 01:28:00,49.9,48.0,30.16,South,191,0.0,0.0,93,0.00,,,0.00,0,Wunderground v.1.15,2013-04-24 05:28:00,
2013-04-24 01:34:00,49.9,48.0,30.16,South,191,0.0,0.0,93,0.00,,,0.00,0,Wunderground v.1.15,2013-04-24 05:34:00,
2013-04-24 01:40:00,49.9,48.0,30.16,South,191,0.0,0.0,93,0.00,,,0.00,0,Wunderground v.1.15,2013-04-24 05:40:00,
2013-04-24 01:46:00,49.8,47.9,30.15,South,191,0.0,0.0,93,0.00,,,0.00,0,Wunderground v.1.15,2013-04-24 05:46:00,
2013-04-24 01:52:00,49.6,47.7,30.15,South,191,0.0,0.0,93,0.00,,,0.00,0,Wunderground v.1.15,2013-04-24 05:52:00,
2013-04-24 01:58:00,49.5,47.6,30.15,South,191,0.0,0.0,93,0.00,,,0.00,0,Wunderground v.1.15,2013-04-24 05:58:00,
2013-04-24 02:04:00,49.4,47.5,30.15,South,191,0.0,0.0,93,0.00,,,0.00,0,Wunderground v.1.15,2013-04-24 06:04:00,
2013-04-24 02:10:00,49.4,47.7,30.15,South,191,0.0,0.0,94,0.00,,,0.00,0,Wunderground v.1.15,2013-04-24 06:10:00,
2013-04-24 02:16:00,49.2,47.3,30.15,South,191,0.0,0.0,93,0.00,,,0.00,0,Wunderground v.1.15,2013-04-24 06:16:00,
2013-04-24 02:22:00,48.9,47.0,30.15,South,191,0.0,0.0,93,0.00,,,0.00,0,Wunderground v.1.15,2013-04-24 06:22:00,
2013-04-24 02:28:00,48.8,46.9,30.15,South,191,0.0,0.0,93,0.00,,,0.00,0,Wunderground v.1.15,2013-04-24 06:28:00,
2013-04-24 02:34:00,48.5,46.9,30.14,South,191,0.0,1.0,94,0.00,,,0.00,0,Wunderground v.1.15,2013-04-24 06:34:00,
2013-04-24 02:40:00,48.3,46.7,30.14,South,191,0.0,0.0,94,0.00,,,0.00,0,Wunderground v.1.15,2013-04-24 06:40:00,
2013-04-24 02:46:00,48.2,46.6,30.14,South,191,0.0,0.0,94,0.00,,,0.00,0,Wunderground v.1.15,2013-04-24 06:46:00,
2013-04-24 02:52:00,48.0,46.4,30.14,South,191,0.0,0.0,94,0.00,,,0.00,0,Wunderground v.1.15,2013-04-24 06:52:00,
2013-04-24 02:58:00,48.0,46.4,30.14,South,191,0.0,0.0,94,0.00,,,0.00,0,Wunderground v.1.15,2013-04-24 06:58:00,
2013-04-24 03:04:00,47.9,46.3,30.13,South,191,0.0,0.0,94,0.00,,,0.00,0,Wunderground v.1.15,2013-04-24 07:04:00,
2013-04-24 03:10:00,47.7,46.1,30.13,South,191,0.0,0.0,94,0.00,,,0.00,0,Wunderground v.1.15,2013-04-24 07:10:00,
2013-04-24 03:16:00,47.6,46.0,30.13,South,191,0.0,0.0,94,0.00,,,0.00,0,Wunderground v.1.15,2013-04-24 07:16:00,
2013-04-24 03:22:00,47.4,45.8,30.13,South,191,0.0,0.0,94,0.00,,,0.00,0,Wunderground v.1.15,2013-04-24 07:22:00,
2013-04-24 03:28:00,47.4,45.8,30.13,South,191,0.0,0.0,94,0.00,,,0.00,0,Wunderground v.1.15,2013-04-24 07:28:00,
2013-04-24 03:34:00,47.3,45.7,30.13,South,191,0.0,0.0,94,0.00,,,0.00,0,Wunderground v.1.15,2013-04-24 07:34:00,
2013-04-24 03:40:00,47.1,45.7,30.13,South,191,0.0,1.0,95,0.00,,,0.00,0,Wunderground v.1.15,2013-04-24 07:40:00,
2013-04-24 03:46:00,47.0,45.6,30.13,South,191,0.0,1.0,95,0.00,,,0.00,0,Wunderground v.1.15,2013-04-24 07:46:00,
2013-04-24 03:52:00,46.8,45.4,30.13,South,191,0.0,0.0,95,0.00,,,0.00,0,Wunderground v.1.15,2013-04-24 07:52:00,
2013-04-24 03:58:00,46.7,45.3,30.13,South,191,0.0,0.0,95,0.00,,,0.00,0,Wunderground v.1.15,2013-04-24 07:58:00,
2013-04-24 04:04:00,46.5,45.1,30.13,South,191,0.0,0.0,95,0.00,,,0.00,0,Wunderground v.1.15,2013-04-24 08:04:00,
2013-04-24 04:10:00,46.4,45.0,30.13,South,191,0.0,0.0,95,0.00,,,0.00,0,Wunderground v.1.15,2013-04-24 08:10:00,
2013-04-24 04:16:00,46.2,44.8,30.13,South,191,0.0,0.0,95,0.00,,,0.00,0,Wunderground v.1.15,2013-04-24 08:16:00,
2013-04-24 04:22:00,46.1,44.7,30.13,South,191,0.0,0.0,95,0.00,,,0.00,0,Wunderground v.1.15,2013-04-24 08:22:00,
2013-04-24 04:28:00,46.0,44.6,30.13,South,191,0.0,0.0,95,0.00,,,0.00,0,Wunderground v.1.15,2013-04-24 08:28:00,
2013-04-24 04:34:00,45.8,44.4,30.13,South,191,0.0,0.0,95,0.00,,,0.00,0,Wunderground v.1.15,2013-04-24 08:34:00,
2013-04-24 04:40:00,45.8,44.4,30.13,South,191,0.0,0.0,95,0.00,,,0.00,0,Wunderground v.1.15,2013-04-24 08:40:00,
2013-04-24 04:46:00,45.5,44.2,30.13,South,191,0.0,0.0,95,0.00,,,0.00,0,Wunderground v.1.15,2013-04-24 08:46:00,
2013-04-24 04:52:00,45.4,44.1,30.13,South,191,0.0,0.0,95,0.00,,,0.00,0,Wunderground v.1.15,2013-04-24 08:52:00,
2013-04-24 04:58:00,45.4,44.3,30.13,South,191,0.0,0.0,96,0.00,,,0.00,0,Wunderground v.1.15,2013-04-24 08:58:00,
2013-04-24 05:04:00,45.2,44.1,30.13,South,191,0.0,0.0,96,0.00,,,0.00,0,Wunderground v.1.15,2013-04-24 09:04:00,
2013-04-24 05:10:00,45.1,44.0,30.13,South,191,0.0,0.0,96,0.00,,,0.00,0,Wunderground v.1.15,2013-04-24 09:10:00,
2013-04-24 05:16:00,44.9,43.8,30.13,South,191,0.0,0.0,96,0.00,,,0.00,0,Wunderground v.1.15,2013-04-24 09:16:00,
2013-04-24 05:22:00,44.9,43.8,30.13,South,191,0.0,0.0,96,0.00,,,0.00,0,Wunderground v.1.15,2013-04-24 09:22:00,
2013-04-24 05:28:00,44.8,43.7,30.13,South,191,0.0,0.0,96,0.00,,,0.00,0,Wunderground v.1.15,2013-04-24 09:28:00,
2013-04-24 05:34:00,44.8,43.7,30.13,South,191,0.0,0.0,96,0.00,,,0.00,0,Wunderground v.1.15,2013-04-24 09:34:00,
2013-04-24 05:40:00,44.6,43.5,30.13,South,191,0.0,0.0,96,0.00,,,0.00,0,Wunderground v.1.15,2013-04-24 09:40:00,
2013-04-24 05:46:00,44.5,43.4,30.14,South,191,0.0,0.0,96,0.00,,,0.00,0,Wunderground v.1.15,2013-04-24 09:46:00,
2013-04-24 05:52:00,44.5,43.4,30.14,South,191,0.0,0.0,96,0.00,,,0.00,0,Wunderground v.1.15,2013-04-24 09:52:00,
2013-04-24 05:58:00,44.3,43.2,30.14,South,191,0.0,0.0,96,0.00,,,0.00,0,Wunderground v.1.15,2013-04-24 09:58:00,
2013-04-24 06:04:00,44.3,43.2,30.14,South,191,0.0,0.0,96,0.00,,,0.00,0,Wunderground v.1.15,2013-04-24 10:04:00,
2013-04-24 06:10:00,44.3,43.2,30.14,South,191,0.0,0.0,96,0.00,,,0.00,0,Wunderground v.1.15,2013-04-24 10:10:00,
2013-04-24 06:16:00,44.3,43.2,30.14,South,191,0.0,0.0,96,0.00,,,0.00,0,Wunderground v.1.15,2013-04-24 10:16:00,
2013-04-24 06:22:00,44.2,43.1,30.14,SW,226,0.0,5.0,96,0.00,,,0.00,0,Wunderground v.1.15,2013-04-24 10:22:00,
2013-04-24 06:28:00,44.3,43.2,30.14,SW,226,1.0,5.0,96,0.00,,,0.00,0,Wunderground v.1.15,2013-04-24 10:28:00,
2013-04-24 06:34:00,44.5,43.7,30.14,SW,226,1.0,2.0,97,0.00,,,0.00,7,Wunderground v.1.15,2013-04-24 10:34:00,
2013-04-24 06:40:00,44.6,43.8,30.14,SW,227,2.0,2.0,97,0.00,,,0.00,9,Wunderground v.1.15,2013-04-24 10:40:00,
2013-04-24 06:46:00,45.1,44.3,30.14,WSW,241,3.0,4.0,97,0.00,,,0.00,14,Wunderground v.1.15,2013-04-24 10:46:00,
2013-04-24 06:52:00,45.8,45.0,30.14,WSW,241,3.0,3.0,97,0.00,,,0.00,18,Wunderground v.1.15,2013-04-24 10:52:00,
2013-04-24 06:58:00,46.7,46.2,30.14,SW,234,2.0,3.0,98,0.00,,,0.00,23,Wunderground v.1.15,2013-04-24 10:58:00,
2013-04-24 07:04:00,47.7,47.2,30.15,WSW,241,2.0,4.0,98,0.00,,,0.00,26,Wunderground v.1.15,2013-04-24 11:04:00,
2013-04-24 07:10:00,48.6,48.1,30.15,WSW,254,3.0,7.0,98,0.00,,,0.00,28,Wunderground v.1.15,2013-04-24 11:10:00,
2013-04-24 07:16:00,49.5,49.0,30.15,SW,219,3.0,7.0,98,0.00,,,0.00,33,Wunderground v.1.15,2013-04-24 11:16:00,
2013-04-24 07:22:00,49.9,49.4,30.15,SSW,210,3.0,4.0,98,0.00,,,0.00,37,Wunderground v.1.15,2013-04-24 11:22:00,
2013-04-24 07:28:00,50.8,50.3,30.15,SW,233,3.0,7.0,98,0.00,,,0.00,42,Wunderground v.1.15,2013-04-24 11:28:00,
2013-04-24 07:34:00,51.3,50.8,30.16,SW,217,4.0,8.0,98,0.00,,,0.00,44,Wunderground v.1.15,2013-04-24 11:34:00,
2013-04-24 07:40:00,51.6,51.1,30.16,SW,216,5.0,5.0,98,0.00,,,0.00,49,Wunderground v.1.15,2013-04-24 11:40:00,
2013-04-24 07:46:00,52.0,51.5,30.16,WSW,256,5.0,5.0,98,0.00,,,0.00,53,Wunderground v.1.15,2013-04-24 11:46:00,
2013-04-24 07:52:00,52.5,52.0,30.16,WSW,247,5.0,5.0,98,0.00,,,0.00,55,Wunderground v.1.15,2013-04-24 11:52:00,
2013-04-24 07:58:00,52.8,52.3,30.16,WSW,248,5.0,7.0,98,0.00,,,0.00,199,Wunderground v.1.15,2013-04-24 11:58:00,
2013-04-24 08:04:00,53.2,52.7,30.16,WSW,257,5.0,7.0,98,0.00,,,0.00,222,Wunderground v.1.15,2013-04-24 12:04:00,
2013-04-24 08:10:00,53.8,53.2,30.16,SW,233,5.0,5.0,98,0.00,,,0.00,238,Wunderground v.1.15,2013-04-24 12:10:00,
2013-04-24 08:16:00,54.4,53.8,30.17,SSW,205,5.0,6.0,98,0.00,,,0.00,262,Wunderground v.1.15,2013-04-24 12:16:00,
2013-04-24 08:22:00,55.3,54.7,30.17,WSW,244,5.0,6.0,98,0.00,,,0.00,271,Wunderground v.1.15,2013-04-24 12:22:00,
2013-04-24 08:28:00,56.5,55.7,30.17,WSW,257,5.0,6.0,97,0.00,,,0.00,301,Wunderground v.1.15,2013-04-24 12:28:00,
2013-04-24 08:34:00,57.5,55.5,30.17,West,268,5.0,8.0,93,0.00,,,0.00,318,Wunderground v.1.15,2013-04-24 12:34:00,
2013-04-24 08:40:00,58.3,55.1,30.17,SW,233,5.0,5.0,89,0.00,,,0.00,350,Wunderground v.1.15,2013-04-24 12:40:00,
2013-04-24 08:46:00,59.0,55.1,30.17,WSW,240,6.0,7.0,87,0.00,,,0.00,378,Wunderground v.1.15,2013-04-24 12:46:00,
2013-04-24 08:52:00,59.8,55.3,30.17,WSW,241,6.0,7.0,85,0.00,,,0.00,405,Wunderground v.1.15,2013-04-24 12:52:00,
2013-04-24 08:58:00,60.2,55.3,30.17,West,260,6.0,10.0,84,0.00,,,0.00,422,Wunderground v.1.15,2013-04-24 12:58:00,
2013-04-24 09:04:00,60.5,55.6,30.17,SW,217,7.0,7.0,84,0.00,,,0.00,445,Wunderground v.1.15,2013-04-24 13:04:00,
2013-04-24 09:10:00,61.3,55.8,30.17,SSW,209,7.0,7.0,82,0.00,,,0.00,473,Wunderground v.1.15,2013-04-24 13:10:00,
2013-04-24 09:16:00,61.5,55.3,30.16,SSW,208,7.0,10.0,80,0.00,,,0.00,496,Wunderground v.1.15,2013-04-24 13:16:00,
2013-04-24 09:22:00,62.4,56.1,30.16,WSW,256,7.0,12.0,80,0.00,,,0.00,512,Wunderground v.1.15,2013-04-24 13:22:00,
2013-04-24 09:28:00,63.2,56.2,30.16,SW,233,6.0,12.0,78,0.00,,,0.00,526,Wunderground v.1.15,2013-04-24 13:28:00,
2013-04-24 09:34:00,63.7,56.4,30.16,SW,236,5.0,6.0,77,0.00,,,0.00,558,Wunderground v.1.15,2013-04-24 13:34:00,
2013-04-24 09:40:00,63.9,55.4,30.16,WSW,239,4.0,4.0,74,0.00,,,0.00,579,Wunderground v.1.15,2013-04-24 13:40:00,
2013-04-24 09:46:00,63.7,55.3,30.16,WSW,243,6.0,7.0,74,0.00,,,0.00,595,Wunderground v.1.15,2013-04-24 13:46:00,
2013-04-24 09:52:00,64.7,55.5,30.16,SW,224,7.0,7.0,72,0.00,,,0.00,611,Wunderground v.1.15,2013-04-24 13:52:00,
2013-04-24 10:00:00,65.2,55.6,30.15,West,261,7.0,9.0,71,0.00,,,0.00,621,Wunderground v.1.15,2013-04-24 14:00:00,
2013-04-24 10:06:00,65.3,55.3,30.15,SW,229,6.0,10.0,70,0.00,,,0.00,658,Wunderground v.1.15,2013-04-24 14:06:00,
2013-04-24 10:12:00,65.0,55.0,30.15,SW,220,7.0,17.0,70,0.00,,,0.00,672,Wunderground v.1.15,2013-04-24 14:12:00,
2013-04-24 10:18:00,66.1,54.8,30.15,WSW,243,6.0,17.0,67,0.00,,,0.00,679,Wunderground v.1.15,2013-04-24 14:18:00,
2013-04-24 10:24:00,66.8,56.3,30.15,SSW,200,5.0,10.0,69,0.00,,,0.00,702,Wunderground v.1.15,2013-04-24 14:24:00,
2013-04-24 10:30:00,67.1,56.2,30.14,SW,216,6.0,8.0,68,0.00,,,0.00,725,Wunderground v.1.15,2013-04-24 14:30:00,
2013-04-24 10:36:00,67.6,55.0,30.14,SW,222,7.0,10.0,64,0.00,,,0.00,737,Wunderground v.1.15,2013-04-24 14:36:00,
2013-04-24 10:42:00,68.6,55.9,30.14,WSW,246,7.0,11.0,64,0.00,,,0.00,751,Wunderground v.1.15,2013-04-24 14:42:00,
2013-04-24 10:48:00,68.6,55.1,30.14,WSW,243,7.0,13.0,62,0.00,,,0.00,734,Wunderground v.1.15,2013-04-24 14:48:00,
2013-04-24 10:54:00,68.6,55.1,30.14,West,263,7.0,12.0,62,0.00,,,0.00,779,Wunderground v.1.15,2013-04-24 14:54:00,
2013-04-24 11:00:00,69.1,56.0,30.13,West,272,6.0,7.0,63,0.00,,,0.00,795,Wunderground v.1.15,2013-04-24 15:00:00,
2013-04-24 11:10:00,69.6,56.0,30.13,WSW,250,5.0,5.0,62,0.00,,,0.00,799,Wunderground v.1.15,2013-04-24 15:10:00,
2013-04-24 11:16:00,69.8,57.9,30.13,SSW,206,5.0,8.0,66,0.00,,,0.00,825,Wunderground v.1.15,2013-04-24 15:16:00,
2013-04-24 11:22:00,70.4,56.3,30.13,SSW,193,5.0,8.0,61,0.00,,,0.00,809,Wunderground v.1.15,2013-04-24 15:22:00,
2013-04-24 11:28:00,70.1,56.5,30.13,SW,224,6.0,8.0,62,0.00,,,0.00,850,Wunderground v.1.15,2013-04-24 15:28:00,
2013-04-24 11:34:00,69.9,56.3,30.12,South,185,6.0,7.0,62,0.00,,,0.00,885,Wunderground v.1.15,2013-04-24 15:34:00,
2013-04-24 11:40:00,70.8,57.1,30.12,WSW,250,6.0,10.0,62,0.00,,,0.00,894,Wunderground v.1.15,2013-04-24 15:40:00,
2013-04-24 11:46:00,71.1,56.5,30.11,SW,232,7.0,10.0,60,0.00,,,0.00,894,Wunderground v.1.15,2013-04-24 15:46:00,
2013-04-24 11:52:00,70.4,55.4,30.11,WSW,248,7.0,11.0,59,0.00,,,0.00,568,Wunderground v.1.15,2013-04-24 15:52:00,
2013-04-24 11:58:00,71.5,58.2,30.11,WSW,247,6.0,11.0,63,0.00,,,0.00,954,Wunderground v.1.15,2013-04-24 15:58:00,
2013-04-24 12:04:00,71.3,57.2,30.10,SSW,210,6.0,10.0,61,0.00,,,0.00,954,Wunderground v.1.15,2013-04-24 16:04:00,
2013-04-24 12:10:00,71.3,55.3,30.10,SSW,212,6.0,6.0,57,0.00,,,0.00,426,Wunderground v.1.15,2013-04-24 16:10:00,
2013-04-24 12:16:00,71.8,57.6,30.09,SW,236,6.0,6.0,61,0.00,,,0.00,922,Wunderground v.1.15,2013-04-24 16:16:00,
2013-04-24 12:22:00,72.1,56.0,30.09,WSW,251,7.0,7.0,57,0.00,,,0.00,922,Wunderground v.1.15,2013-04-24 16:22:00,
2013-04-24 12:28:00,72.7,57.1,30.09,WSW,246,7.0,9.0,58,0.00,,,0.00,922,Wunderground v.1.15,2013-04-24 16:28:00,
2013-04-24 12:34:00,73.7,57.0,30.08,WSW,240,6.0,11.0,56,0.00,,,0.00,927,Wunderground v.1.15,2013-04-24 16:34:00,
2013-04-24 12:40:00,73.9,57.7,30.08,WSW,257,5.0,6.0,57,0.00,,,0.00,929,Wunderground v.1.15,2013-04-24 16:40:00,
2013-04-24 12:46:00,73.5,55.8,30.08,SSW,209,7.0,14.0,54,0.00,,,0.00,936,Wunderground v.1.15,2013-04-24 16:46:00,
2013-04-24 12:52:00,73.9,56.7,30.08,WSW,240,7.0,7.0,55,0.00,,,0.00,934,Wunderground v.1.15,2013-04-24 16:52:00,
2013-04-24 12:58:00,74.6,55.3,30.08,West,274,6.0,10.0,51,0.00,,,0.00,934,Wunderground v.1.15,2013-04-24 16:58:00,
2013-04-24 13:04:00,74.9,57.1,30.07,SSW,199,8.0,10.0,54,0.00,,,0.00,940,Wunderground v.1.15,2013-04-24 17:04:00,
2013-04-24 13:10:00,74.7,56.4,30.07,SW,220,8.0,8.0,53,0.00,,,0.00,947,Wunderground v.1.15,2013-04-24 17:10:00,
2013-04-24 13:16:00,74.9,57.1,30.07,WSW,250,8.0,9.0,54,0.00,,,0.00,971,Wunderground v.1.15,2013-04-24 17:16:00,
2013-04-24 13:22:00,75.3,55.9,30.07,SW,236,7.0,8.0,51,0.00,,,0.00,973,Wunderground v.1.15,2013-04-24 17:22:00,
2013-04-24 13:28:00,75.3,57.0,30.07,SSW,206,5.0,8.0,53,0.00,,,0.00,962,Wunderground v.1.15,2013-04-24 17:28:00,
2013-04-24 13:34:00,76.1,58.2,30.07,SW,222,6.0,6.0,54,0.00,,,0.00,977,Wunderground v.1.15,2013-04-24 17:34:00,
2013-04-24 13:40:00,75.8,55.8,30.07,SSW,195,6.0,6.0,50,0.00,,,0.00,989,Wunderground v.1.15,2013-04-24 17:40:00,
2013-04-24 13:46:00,76.0,56.0,30.07,SW,217,7.0,12.0,50,0.00,,,0.00,989,Wunderground v.1.15,2013-04-24 17:46:00,
2013-04-24 13:52:00,76.3,57.4,30.07,SW,227,7.0,8.0,52,0.00,,,0.00,962,Wunderground v.1.15,2013-04-24 17:52:00,
2013-04-24 13:58:00,76.7,55.5,30.07,SW,220,6.0,10.0,48,0.00,,,0.00,765,Wunderground v.1.15,2013-04-24 17:58:00,
2013-04-24 14:04:00,76.5,55.3,30.06,SSW,209,9.0,14.0,48,0.00,,,0.00,941,Wunderground v.1.15,2013-04-24 18:04:00,
2013-04-24 14:10:00,76.8,56.8,30.06,West,268,7.0,7.0,50,0.00,,,0.00,989,Wunderground v.1.15,2013-04-24 18:10:00,
2013-04-24 14:16:00,77.9,57.2,30.06,SW,220,7.0,10.0,49,0.00,,,0.00,962,Wunderground v.1.15,2013-04-24 18:16:00,
2013-04-24 14:22:00,77.7,55.3,30.06,SW,232,7.0,10.0,46,0.00,,,0.00,952,Wunderground v.1.15,2013-04-24 18:22:00,
2013-04-24 14:28:00,77.9,55.5,30.06,WSW,247,7.0,14.0,46,0.00,,,0.00,910,Wunderground v.1.15,2013-04-24 18:28:00,
2013-04-24 14:34:00,78.3,55.8,30.05,SW,216,7.0,8.0,46,0.00,,,0.00,906,Wunderground v.1.15,2013-04-24 18:34:00,
2013-04-24 14:40:00,78.5,55.4,30.05,WSW,257,7.0,8.0,45,0.00,,,0.00,890,Wunderground v.1.15,2013-04-24 18:40:00,
2013-04-24 14:46:00,78.5,55.4,30.05,SW,236,8.0,15.0,45,0.00,,,0.00,878,Wunderground v.1.15,2013-04-24 18:46:00,
2013-04-24 14:52:00,78.6,55.5,30.05,West,263,10.0,19.0,45,0.00,,,0.00,823,Wunderground v.1.15,2013-04-24 18:52:00,
2013-04-24 14:58:00,78.1,55.6,30.05,SW,234,8.0,19.0,46,0.00,,,0.00,822,Wunderground v.1.15,2013-04-24 18:58:00,
2013-04-24 15:04:00,78.5,56.0,30.05,SW,227,7.0,12.0,46,0.00,,,0.00,889,Wunderground v.1.15,2013-04-24 19:04:00,
2013-04-24 15:10:00,78.6,54.9,30.05,SW,222,9.0,12.0,44,0.00,,,0.00,776,Wunderground v.1.15,2013-04-24 19:10:00,
2013-04-24 15:16:00,79.0,54.6,30.04,West,274,10.0,12.0,43,0.00,,,0.00,864,Wunderground v.1.15,2013-04-24 19:16:00,
2013-04-24 15:22:00,79.2,54.8,30.04,WSW,253,9.0,12.0,43,0.00,,,0.00,765,Wunderground v.1.15,2013-04-24 19:22:00,
2013-04-24 15:28:00,78.6,54.2,30.04,SW,236,9.0,14.0,43,0.00,,,0.00,681,Wunderground v.1.15,2013-04-24 19:28:00,
2013-04-24 15:34:00,78.6,56.1,30.03,SSW,209,8.0,9.0,46,0.00,,,0.00,558,Wunderground v.1.15,2013-04-24 19:34:00,
2013-04-24 15:40:00,77.7,53.4,30.03,SW,230,9.0,10.0,43,0.00,,,0.00,494,Wunderground v.1.15,2013-04-24 19:40:00,
2013-04-24 15:46:00,77.9,56.6,30.02,WNW,284,8.0,10.0,48,0.00,,,0.00,679,Wunderground v.1.15,2013-04-24 19:46:00,
2013-04-24 15:52:00,78.8,54.4,30.02,WSW,248,6.0,17.0,43,0.00,,,0.00,677,Wunderground v.1.15,2013-04-24 19:52:00,
2013-04-24 15:58:00,78.3,54.0,30.02,SW,219,9.0,17.0,43,0.00,,,0.00,677,Wunderground v.1.15,2013-04-24 19:58:00,
2013-04-24 16:04:00,78.6,53.6,30.01,SW,236,9.0,10.0,42,0.00,,,0.00,728,Wunderground v.1.15,2013-04-24 20:04:00,
2013-04-24 16:10:00,79.8,53.3,30.01,WSW,258,7.0,10.0,40,0.00,,,0.00,662,Wunderground v.1.15,2013-04-24 20:10:00,
2013-04-24 16:16:00,78.8,55.0,30.02,West,271,9.0,10.0,44,0.00,,,0.00,560,Wunderground v.1.15,2013-04-24 20:16:00,
2013-04-24 16:22:00,78.3,54.6,30.02,SW,226,8.0,12.0,44,0.00,,,0.00,501,Wunderground v.1.15,2013-04-24 20:22:00,
2013-04-24 16:28:00,78.8,55.7,30.02,SSE,155,7.0,12.0,45,0.00,,,0.00,567,Wunderground v.1.15,2013-04-24 20:28:00,
2013-04-24 16:34:00,78.1,54.4,30.02,WSW,239,8.0,12.0,44,0.00,,,0.00,500,Wunderground v.1.15,2013-04-24 20:34:00,
2013-04-24 16:40:00,77.4,53.8,30.02,SW,217,9.0,12.0,44,0.00,,,0.00,278,Wunderground v.1.15,2013-04-24 20:40:00,
2013-04-24 16:46:00,76.7,53.8,30.00,WSW,248,10.0,12.0,45,0.00,,,0.00,264,Wunderground v.1.15,2013-04-24 20:46:00,
2013-04-24 16:52:00,76.5,53.6,30.00,SSW,193,9.0,9.0,45,0.00,,,0.00,394,Wunderground v.1.15,2013-04-24 20:52:00,
2013-04-24 16:58:00,76.8,54.5,30.00,SW,224,9.0,9.0,46,0.00,,,0.00,301,Wunderground v.1.15,2013-04-24 20:58:00,
2013-04-24 17:04:00,76.7,55.0,30.00,SW,234,8.0,18.0,47,0.00,,,0.00,229,Wunderground v.1.15,2013-04-24 21:04:00,
2013-04-24 17:10:00,76.5,55.9,30.00,WSW,240,6.0,12.0,49,0.00,,,0.00,215,Wunderground v.1.15,2013-04-24 21:10:00,
2013-04-24 17:16:00,76.3,54.0,30.00,WSW,246,8.0,12.0,46,0.00,,,0.00,215,Wunderground v.1.15,2013-04-24 21:16:00,
2013-04-24 17:22:00,76.3,54.6,30.00,North,359,7.0,8.0,47,0.00,,,0.00,238,Wunderground v.1.15,2013-04-24 21:22:00,
2013-04-24 17:28:00,77.0,55.2,30.00,SW,217,6.0,14.0,47,0.00,,,0.00,429,Wunderground v.1.15,2013-04-24 21:28:00,
2013-04-24 17:34:00,77.6,55.2,29.99,South,181,7.0,13.0,46,0.00,,,0.00,301,Wunderground v.1.15,2013-04-24 21:34:00,
2013-04-24 17:40:00,76.8,55.0,29.99,SW,222,8.0,8.0,47,0.00,,,0.00,171,Wunderground v.1.15,2013-04-24 21:40:00,
2013-04-24 17:46:00,76.3,54.6,29.99,SSW,209,5.0,8.0,47,0.00,,,0.00,153,Wunderground v.1.15,2013-04-24 21:46:00,
2013-04-24 17:52:00,76.0,54.9,29.99,SW,229,5.0,7.0,48,0.00,,,0.00,155,Wunderground v.1.15,2013-04-24 21:52:00,
2013-04-24 17:58:00,75.8,54.7,29.99,SW,217,6.0,7.0,48,0.00,,,0.00,141,Wunderground v.1.15,2013-04-24 21:58:00,
2013-04-24 18:04:00,75.6,54.5,29.98,SW,222,6.0,11.0,48,0.00,,,0.00,141,Wunderground v.1.15,2013-04-24 22:04:00,
2013-04-24 18:10:00,75.4,55.5,29.98,SSE,157,6.0,6.0,50,0.00,,,0.00,116,Wunderground v.1.15,2013-04-24 22:10:00,
2013-04-24 18:16:00,75.4,54.9,29.97,West,271,6.0,10.0,49,0.00,,,0.00,167,Wunderground v.1.15,2013-04-24 22:16:00,
2013-04-24 18:22:00,75.6,55.1,29.97,SSW,209,7.0,10.0,49,0.00,,,0.00,250,Wunderground v.1.15,2013-04-24 22:22:00,
2013-04-24 18:28:00,75.8,54.7,29.97,SSW,208,7.0,10.0,48,0.00,,,0.00,199,Wunderground v.1.15,2013-04-24 22:28:00,
2013-04-24 18:34:00,76.0,54.9,29.97,SW,226,6.0,7.0,48,0.00,,,0.00,162,Wunderground v.1.15,2013-04-24 22:34:00,
2013-04-24 18:40:00,75.8,55.3,29.97,SSW,196,8.0,8.0,49,0.00,,,0.00,165,Wunderground v.1.15,2013-04-24 22:40:00,
2013-04-24 18:46:00,75.4,54.3,29.98,SSW,200,7.0,8.0,48,0.00,,,0.00,150,Wunderground v.1.15,2013-04-24 22:46:00,
2013-04-24 18:52:00,75.4,55.5,29.98,WSW,254,7.0,7.0,50,0.00,,,0.00,169,Wunderground v.1.15,2013-04-24 22:52:00,
2013-04-24 18:58:00,75.3,54.8,29.98,SSW,209,6.0,10.0,49,0.00,,,0.00,99,Wunderground v.1.15,2013-04-24 22:58:00,
2013-04-24 19:04:00,75.1,55.2,29.98,SW,217,6.0,6.0,50,0.00,,,0.00,74,Wunderground v.1.15,2013-04-24 23:04:00,
2013-04-24 19:10:00,74.7,54.8,29.98,SW,220,6.0,8.0,50,0.00,,,0.00,67,Wunderground v.1.15,2013-04-24 23:10:00,
2013-04-24 19:16:00,74.2,55.4,29.98,SW,220,6.0,8.0,52,0.00,,,0.00,56,Wunderground v.1.15,2013-04-24 23:16:00,
2013-04-24 19:22:00,73.9,55.2,29.98,SSW,213,6.0,6.0,52,0.00,,,0.00,44,Wunderground v.1.15,2013-04-24 23:22:00,
2013-04-24 19:28:00,73.5,55.3,29.98,SW,217,4.0,6.0,53,0.00,,,0.00,32,Wunderground v.1.15,2013-04-24 23:28:00,
2013-04-24 19:34:00,73.2,55.6,29.98,SW,215,5.0,6.0,54,0.00,,,0.00,25,Wunderground v.1.15,2013-04-24 23:34:00,
2013-04-24 19:40:00,73.0,55.4,29.98,SSW,208,4.0,5.0,54,0.00,,,0.00,19,Wunderground v.1.15,2013-04-24 23:40:00,
2013-04-24 19:46:00,72.7,55.6,29.99,WSW,258,4.0,5.0,55,0.00,,,0.00,12,Wunderground v.1.15,2013-04-24 23:46:00,
2013-04-24 19:52:00,72.3,55.2,29.99,SW,220,4.0,5.0,55,0.00,,,0.00,9,Wunderground v.1.15,2013-04-24 23:52:00,
2013-04-24 19:58:00,71.8,55.3,29.99,SSW,209,4.0,5.0,56,0.00,,,0.00,5,Wunderground v.1.15,2013-04-24 23:58:00,
2013-04-24 20:04:00,71.6,55.6,29.99,West,268,4.0,5.0,57,0.00,,,0.00,0,Wunderground v.1.15,2013-04-25 00:04:00,
2013-04-24 20:10:00,71.3,55.3,29.99,WSW,237,5.0,5.0,57,0.00,,,0.00,0,Wunderground v.1.15,2013-04-25 00:10:00,
2013-04-24 20:16:00,71.1,55.6,29.99,SW,227,4.0,7.0,58,0.00,,,0.00,0,Wunderground v.1.15,2013-04-25 00:16:00,
2013-04-24 20:22:00,70.9,55.4,29.99,SW,216,4.0,4.0,58,0.00,,,0.00,0,Wunderground v.1.15,2013-04-25 00:22:00,
2013-04-24 20:28:00,70.8,55.3,29.99,WSW,237,4.0,7.0,58,0.00,,,0.00,0,Wunderground v.1.15,2013-04-25 00:28:00,
2013-04-24 20:34:00,70.6,55.1,30.00,SW,220,4.0,4.0,58,0.00,,,0.00,0,Wunderground v.1.15,2013-04-25 00:34:00,
2013-04-24 20:40:00,70.4,55.4,30.00,SSW,206,4.0,4.0,59,0.00,,,0.00,0,Wunderground v.1.15,2013-04-25 00:40:00,
2013-04-24 20:46:00,70.3,55.3,30.00,SW,232,3.0,7.0,59,0.00,,,0.00,0,Wunderground v.1.15,2013-04-25 00:46:00,
2013-04-24 20:52:00,70.1,55.6,30.00,SSW,199,4.0,5.0,60,0.00,,,0.00,0,Wunderground v.1.15,2013-04-25 00:52:00,
2013-04-24 20:58:00,69.9,55.4,30.00,SW,232,3.0,7.0,60,0.00,,,0.00,0,Wunderground v.1.15,2013-04-25 00:58:00,
2013-04-24 21:04:00,69.9,55.4,30.00,SW,226,3.0,5.0,60,0.00,,,0.00,0,Wunderground v.1.15,2013-04-25 01:04:00,
2013-04-24 21:10:00,69.8,55.3,30.00,SW,227,4.0,4.0,60,0.00,,,0.00,0,Wunderground v.1.15,2013-04-25 01:10:00,
2013-04-24 21:16:00,69.8,55.7,30.01,SSW,212,3.0,5.0,61,0.00,,,0.00,0,Wunderground v.1.15,2013-04-25 01:16:00,
2013-04-24 21:22:00,69.8,55.7,30.01,WSW,253,3.0,7.0,61,0.00,,,0.00,0,Wunderground v.1.15,2013-04-25 01:22:00,
2013-04-24 21:28:00,69.6,55.6,30.01,WSW,251,3.0,7.0,61,0.00,,,0.00,0,Wunderground v.1.15,2013-04-25 01:28:00,
2013-04-24 21:34:00,69.6,55.6,30.01,SW,232,4.0,5.0,61,0.00,,,0.00,0,Wunderground v.1.15,2013-04-25 01:34:00,
2013-04-24 21:40:00,69.4,55.4,30.01,West,260,3.0,5.0,61,0.00,,,0.00,0,Wunderground v.1.15,2013-04-25 01:40:00,
2013-04-24 21:46:00,69.3,55.3,30.02,SW,216,3.0,5.0,61,0.00,,,0.00,0,Wunderground v.1.15,2013-04-25 01:46:00,
2013-04-24 21:52:00,69.1,55.5,30.02,SSW,210,4.0,4.0,62,0.00,,,0.00,0,Wunderground v.1.15,2013-04-25 01:52:00,
2013-04-24 21:58:00,69.1,55.5,30.02,SW,224,4.0,5.0,62,0.00,,,0.00,0,Wunderground v.1.15,2013-04-25 01:58:00,
2013-04-24 22:04:00,68.9,55.8,30.02,WSW,237,3.0,5.0,63,0.00,,,0.00,0,Wunderground v.1.15,2013-04-25 02:04:00,
2013-04-24 22:10:00,68.8,55.7,30.02,SW,229,3.0,3.0,63,0.00,,,0.00,0,Wunderground v.1.15,2013-04-25 02:10:00,
2013-04-24 22:16:00,68.6,55.5,30.02,WSW,239,3.0,3.0,63,0.00,,,0.00,0,Wunderground v.1.15,2013-04-25 02:16:00,
2013-04-24 22:22:00,68.4,55.3,30.02,SSW,205,3.0,5.0,63,0.00,,,0.00,0,Wunderground v.1.15,2013-04-25 02:22:00,
2013-04-24 22:28:00,68.3,55.6,30.02,SW,219,3.0,5.0,64,0.00,,,0.00,0,Wunderground v.1.15,2013-04-25 02:28:00,
2013-04-24 22:34:00,68.1,55.5,30.02,WSW,244,3.0,6.0,64,0.00,,,0.00,0,Wunderground v.1.15,2013-04-25 02:34:00,
2013-04-24 22:40:00,68.1,55.5,30.02,WSW,251,3.0,3.0,64,0.00,,,0.00,0,Wunderground v.1.15,2013-04-25 02:40:00,
2013-04-24 22:46:00,67.9,55.3,30.02,WSW,247,3.0,7.0,64,0.00,,,0.00,0,Wunderground v.1.15,2013-04-25 02:46:00,
2013-04-24 22:52:00,67.8,55.2,30.02,WSW,246,4.0,4.0,64,0.00,,,0.00,0,Wunderground v.1.15,2013-04-25 02:52:00,
2013-04-24 22:58:00,67.8,55.6,30.02,SSW,206,3.0,5.0,65,0.00,,,0.00,0,Wunderground v.1.15,2013-04-25 02:58:00,
2013-04-24 23:04:00,67.6,55.4,30.02,SW,216,4.0,6.0,65,0.00,,,0.00,0,Wunderground v.1.15,2013-04-25 03:04:00,
2013-04-24 23:10:00,67.4,55.2,30.02,SW,215,4.0,4.0,65,0.00,,,0.00,0,Wunderground v.1.15,2013-04-25 03:10:00,
2013-04-24 23:16:00,67.4,55.2,30.01,SSW,209,4.0,6.0,65,0.00,,,0.00,0,Wunderground v.1.15,2013-04-25 03:16:00,
2013-04-24 23:22:00,67.3,55.5,30.01,SW,219,3.0,5.0,66,0.00,,,0.00,0,Wunderground v.1.15,2013-04-25 03:22:00,
2013-04-24 23:28:00,67.1,55.4,30.01,South,182,4.0,7.0,66,0.00,,,0.00,0,Wunderground v.1.15,2013-04-25 03:28:00,
2013-04-24 23:34:00,66.9,55.2,30.01,SSW,213,4.0,5.0,66,0.00,,,0.00,0,Wunderground v.1.15,2013-04-25 03:34:00,
2013-04-24 23:40:00,66.6,55.3,30.01,SW,215,3.0,4.0,67,0.00,,,0.00,0,Wunderground v.1.15,2013-04-25 03:40:00,
2013-04-24 23:46:00,66.4,55.9,30.01,SW,224,3.0,5.0,69,0.00,,,0.00,0,Wunderground v.1.15,2013-04-25 03:46:00,
2013-04-24 23:52:00,66.1,56.0,30.01,SW,219,4.0,4.0,70,0.00,,,0.00,0,Wunderground v.1.15,2013-04-25 03:52:00,
2013-04-24 23:58:00,65.6,55.9,30.01,SSW,213,4.0,5.0,71,0.00,,,0.00,0,Wunderground v.1.15,2013-04-25 03:58:00,